Regional Weather Roundup
Issued by NWS

Home | Current Version | Previous Version | Text Only | Print | Product List | Glossary On
Versions: 1 2 3 4 5 6 7 8 9 10 11 12 13 14 15 16 17 18 19 20 21 22 23 24 25 26 27 28 29 30 31 32 33 34 35 36 37 38 39 40 41 42 43 44 45 46 47 48 49 50
000
ASCA44 KEWX 301720
RWRMX

LATIN AMERICA AND CARIBBEAN REGIONAL WEATHER ROUNDUP
NATIONAL WEATHER SERVICE AUSTIN/SAN ANTONIO TX
1200 PM CDT SUN APR 30 2017

NOTE: "FAIR" INDICATED FEW OR NO CLOUDS BELOW 12,000 FEET WITH NO
SIGNIFICANT WEATHER AND/OR OBSTRUCTIONS TO VISIBILITY.

BAJA CALIFORNIA

CITY           SKY/WX    TMP DP  RH WIND       PRES   REMARKS
LORETO         SUNNY     77  46  33 N12       29.97S
LA PAZ         MOSUNNY   75  61  60 NW9       30.01R
MEXICALI       SUNNY     81  18   9 NW6       30.06R
S.J. DEL CABO  SUNNY     81  55  41 N6        29.97S
TIJUANA        SUNNY     81  16   9 CALM      30.10S

NORTHWESTERN MEXICO

CITY           SKY/WX    TMP DP  RH WIND       PRES   REMARKS
CULIACAN       PTSUNNY   79  63  57 CALM      29.96S
DURANGO        SUNNY     70  19  14 S6        30.22S
GUAYMAS        SUNNY     82  34  17 CALM      29.93S
HERMOSILLO     SUNNY     84  18   8 E13       30.03R
CD. JUAREZ     SUNNY     63  23  22 NW14      30.02S
LOS MOCHIS     MOSUNNY   79  55  44 E10       29.98R
OBREGON        SUNNY     81  48  32 W6        29.95S

NORTHEASTERN MEXICO

CITY           SKY/WX    TMP DP  RH WIND       PRES   REMARKS
CHIHUAHUA      SUNNY     64  23  20 W7        30.16F
MATAMOROS      SUNNY     79  41  25 N16       29.97S
MONCLOVA       SUNNY     72  30  21 NE6       30.03
MONTERREY      SUNNY     77  70  78 NW8       30.01F
NUEVO LAREDO   SUNNY     72  36  26 N13       30.03F
PIEDRAS NEGRAS SUNNY     66  46  48 NW18      30.07
REYNOSA        SUNNY     79  32  18 NW9G21    29.99S
SALTILLO       SUNNY     77  55  47 CALM      30.15S
TORREON        SUNNY     73  27  17 NW7       30.14S
CD. VICTORIA   SUNNY     81  30  16 N10G25    29.99S

WESTERN MEXICO

CITY           SKY/WX    TMP DP  RH WIND       PRES   REMARKS
AGUASCALIENTES SUNNY     79  19  11 SW7       30.27S
COLIMA         MOSUNNY   82  54  36 NE12      30.04S
DEL BAJIO      SUNNY     77  25  14 NW5       30.29F
GUADALAJARA    SUNNY     77  32  19 S6        30.20S
MANZANILLO     SUNNY     79  68  69 SW12      29.90F
MAZATLAN       SUNNY     82  63  51 SW9       29.95S
P. VALLARTA    SUNNY     81  64  57 SW12      29.94S
URUAPAN        SUNNY     75  43  31 S7        30.18S
ZACATECAS      SUNNY     73  27  17 SW10      30.28S

CENTRAL MEXICO

CITY           SKY/WX    TMP DP  RH WIND       PRES   REMARKS
CUERNAVACA     SUNNY     84  41  21 SE8       30.10F
MEXICO CITY    SUNNY     79  21  11 CALM      30.29F
MORELIA        SUNNY     77  36  22 N6        30.24F
POZA RICA      MOSUNNY   84  70  61 N14       29.95R
PUEBLA         SUNNY     75  37  25 SE8       30.30F
QUERETARO      SUNNY     77  30  18 W8        30.28F
S. LUIS POTOSI SUNNY     81  12   7 S7        30.21F
TAMPICO        SUNNY     84  39  20 E17       29.93R
TOLUCA         SUNNY     72  18  13 CALM      30.34F

SOUTHERN MEXICO

CITY           SKY/WX    TMP DP  RH WIND       PRES   REMARKS
ACAPULCO       SUNNY     86  73  66 SW6       29.89F HX  93
B. DE HUATULCO SUNNY     91  70  49 W9        29.92  HX  97
OAXACA         SUNNY     81  45  28 E6        30.16F
P. ESCONDIDO   SUNNY     81  70  69 W12       29.99F
VERACRUZ       MOSUNNY   86  72  62 E20       29.79S HX  92
ZIHUATANEJO    SUNNY     84  70  61 SW12      29.92S

YUCATAN PENINSULA

CITY           SKY/WX    TMP DP  RH WIND       PRES   REMARKS
CAMPECHE       SUNNY     95  75  52 E14G29    29.73F HX 107
CANCUN         MOSUNNY   86  77  74 SE20      29.92F HX  97
CHETUMAL       PTSUNNY   88  77  70 SE23      29.84F HX 100
CD. DEL CARMEN PTSUNNY   93  73  52 SE8       29.75F HX 102
COZUMEL        PTSUNNY   86  75  70 SE18      29.88F HX  95
MERIDA         SUNNY     95  73  49 SE16      29.80F HX 105
MINATITLAN     SUNNY     93  70  46 S23       29.73F HX  99
TAPACHULA      MOSUNNY   93  73  52 W6        29.84F HX 102
TUX. GUTIERREZ SUNNY     90  59  35 E9        29.90F
VILLAHERMOSA   SUNNY     95  73  49 CALM      29.76F HX 105

CENTRAL AMERICA

CITY           SKY/WX    TMP DP  RH WIND       PRES   REMARKS
BELIZE CITY    MOSUNNY   90  79  70 SE9       29.81F HX 105
MANAGUA        MOSUNNY   93  70  46 E14       29.83S HX  99

CARIBBEAN

CITY           SKY/WX    TMP DP  RH WIND       PRES   REMARKS
ARUBA          MOSUNNY   90  77  66 E25       29.89S HX 102
KINGSTON       MOSUNNY   86  75  70 SE26      29.94S HX  95
NASSAU         MOSUNNY   88  61  40 E17       30.13F
SAN JUAN       MOSUNNY   82  73  74 E17       30.06F
SANTO DOMINGO  PTSUNNY   79  73  83 NE14      30.03S
ST. CROIX      PTSUNNY   82  70  65 E17       30.05
ST. KITTS      MOSUNNY   82  73  74 NE15      30.03F
ST. MAARTEN    MOSUNNY   81  72  74 E16       30.03F
ST. THOMAS     SUNNY     81  70  69 E16       30.05

$$





USA.gov is the U.S. government's official web portal to all federal, state and local government web resources and services.